• In Kazakhstan
  • List of Countries
  • For 7 days
  • Water Temperature
  • Satellite Maps
  • Weather Map
  • News
  • Weather Widgets
  • user-avatar
    Login

    Hourly Weather Cirie

    Today, 24 April, Wednesday

    Time Temperature Precipitation Wind Pressure Humidity
    00:00 +12°C° 2.2 mm 1 mps 722 mmHg 95%
    01:00 +12°C° 2.2 mm 1 mps 722 mmHg 96%
    02:00 +12°C° 0.2 mm 1 mps 722 mmHg 96%
    03:00 +12°C° 0.2 mm 1 mps 722 mmHg 96%
    04:00 +10°C° 0.2 mm 0 mps 723 mmHg 97%
    05:00 +12°C° 0.1 mm 1 mps 723 mmHg 96%
    06:00 +12°C° 0.1 mm 1 mps 723 mmHg 95%
    07:00 +12°C° 0.1 mm 1 mps 724 mmHg 94%
    08:00 +12°C° 0.9 mm 1 mps 724 mmHg 94%
    09:00 +12°C° 0.9 mm 2 mps 724 mmHg 95%
    10:00 +13°C° 0.9 mm 2 mps 724 mmHg 95%
    11:00 +13°C° 3 mm 2 mps 725 mmHg 95%
    12:00 +12°C° 3 mm 3 mps 725 mmHg 94%
    13:00 +13°C° 3 mm 3 mps 725 mmHg 93%
    14:00 +13°C° 1.2 mm 3 mps 725 mmHg 89%
    15:00 +14°C° 1.2 mm 3 mps 726 mmHg 85%
    16:00 +14°C° 1.2 mm 3 mps 726 mmHg 80%
    17:00 +14°C° 0.4 mm 3 mps 726 mmHg 83%
    18:00 +14°C° 0.4 mm 2 mps 726 mmHg 85%
    19:00 +13°C° 0.4 mm 2 mps 727 mmHg 87%
    20:00 +13°C° 0.1 mm 2 mps 727 mmHg 90%
    21:00 +12°C° 0.1 mm 2 mps 728 mmHg 92%
    22:00 +10°C° 0.1 mm 2 mps 729 mmHg 95%
    23:00 +11°C° 0.1 mm 1 mps 729 mmHg 94%

    Tomorrow, 25 April, Thursday

    Time Temperature Precipitation Wind Pressure Humidity
    00:00 +11°C° 0.1 mm 1 mps 730 mmHg 94%
    01:00 +11°C° 0.1 mm 1 mps 730 mmHg 94%
    02:00 +10°C° 0 mm 1 mps 730 mmHg 93%
    03:00 +10°C° 0 mm 1 mps 730 mmHg 93%
    04:00 +10°C° 0 mm 1 mps 730 mmHg 92%
    05:00 +10°C° 0 mm 1 mps 730 mmHg 90%
    06:00 +11°C° 0 mm 1 mps 730 mmHg 88%
    07:00 +11°C° 0 mm 1 mps 730 mmHg 85%
    08:00 +12°C° 0 mm 1 mps 730 mmHg 82%
    09:00 +13°C° 0 mm 1 mps 730 mmHg 78%
    10:00 +13°C° 0 mm 1 mps 730 mmHg 74%
    11:00 +14°C° 0.1 mm 1 mps 729 mmHg 70%
    12:00 +15°C° 0.1 mm 1 mps 729 mmHg 67%
    13:00 +16°C° 0.1 mm 1 mps 729 mmHg 63%
    14:00 +16°C° 0.1 mm 1 mps 729 mmHg 62%
    15:00 +18°C° 0.1 mm 1 mps 729 mmHg 62%
    16:00 +18°C° 0.1 mm 1 mps 729 mmHg 62%
    17:00 +16°C° 0.1 mm 1 mps 729 mmHg 66%
    18:00 +15°C° 0.1 mm 1 mps 729 mmHg 70%
    19:00 +14°C° 0.1 mm 1 mps 729 mmHg 74%
    20:00 +13°C° 0.2 mm 1 mps 729 mmHg 75%
    21:00 +13°C° 0.2 mm 1 mps 729 mmHg 76%
    22:00 +13°C° 0.2 mm 1 mps 730 mmHg 77%
    23:00 +12°C° 0.3 mm 1 mps 730 mmHg 80%

    Day after tomorrow, 26 April, Friday

    Time Temperature Precipitation Wind Pressure Humidity
    00:00 +12°C° 0.3 mm 1 mps 730 mmHg 84%
    01:00 +12°C° 0.3 mm 1 mps 730 mmHg 87%
    02:00 +12°C° 0.8 mm 1 mps 729 mmHg 90%
    03:00 +12°C° 0.8 mm 1 mps 729 mmHg 92%
    04:00 +12°C° 0.8 mm 1 mps 728 mmHg 95%
    05:00 +12°C° 1.4 mm 1 mps 728 mmHg 95%
    06:00 +12°C° 1.4 mm 1 mps 728 mmHg 96%
    07:00 +12°C° 1.4 mm 1 mps 728 mmHg 97%
    08:00 +12°C° 0.9 mm 1 mps 728 mmHg 93%
    09:00 +13°C° 0.9 mm 1 mps 729 mmHg 89%
    10:00 +14°C° 0.9 mm 1 mps 729 mmHg 85%
    11:00 +14°C° 0.7 mm 1 mps 729 mmHg 75%
    12:00 +15°C° 0.7 mm 2 mps 729 mmHg 65%
    13:00 +16°C° 0.7 mm 3 mps 729 mmHg 54%
    14:00 +16°C° 0 mm 3 mps 729 mmHg 51%
    15:00 +17°C° 0 mm 3 mps 729 mmHg 48%
    16:00 +17°C° 0 mm 3 mps 729 mmHg 45%
    17:00 +16°C° 0 mm 2 mps 729 mmHg 51%
    18:00 +14°C° 0 mm 2 mps 730 mmHg 57%
    19:00 +13°C° 0 mm 1 mps 730 mmHg 64%
    20:00 +12°C° 0 mm 2 mps 730 mmHg 63%
    21:00 +10°C° 0 mm 2 mps 731 mmHg 62%
    22:00 +10°C° 0 mm 2 mps 732 mmHg 62%
    23:00 +9°C° 0 mm 2 mps 732 mmHg 61%

    27 April, Saturday

    Time Temperature Precipitation Wind Pressure Humidity
    00:00 +9°C° 0 mm 2 mps 732 mmHg 60%
    01:00 +9°C° 0 mm 2 mps 732 mmHg 58%
    02:00 +9°C° 0 mm 2 mps 732 mmHg 58%
    03:00 +8°C° 0 mm 2 mps 732 mmHg 58%
    04:00 +8°C° 0 mm 2 mps 732 mmHg 58%
    05:00 +9°C° 0 mm 2 mps 732 mmHg 58%
    06:00 +9°C° 0 mm 2 mps 732 mmHg 58%
    07:00 +10°C° 0 mm 2 mps 732 mmHg 58%
    08:00 +13°C° 0 mm 2 mps 732 mmHg 54%
    09:00 +15°C° 0 mm 2 mps 732 mmHg 51%
    10:00 +18°C° 0 mm 1 mps 732 mmHg 47%
    11:00 +18°C° 0 mm 2 mps 731 mmHg 46%
    12:00 +19°C° 0 mm 2 mps 731 mmHg 45%
    13:00 +20°C° 0 mm 2 mps 731 mmHg 44%
    14:00 +20°C° 0 mm 2 mps 730 mmHg 43%
    15:00 +20°C° 0 mm 2 mps 730 mmHg 42%
    16:00 +20°C° 0 mm 2 mps 730 mmHg 41%
    17:00 +19°C° 0 mm 2 mps 730 mmHg 46%
    18:00 +17°C° 0 mm 2 mps 729 mmHg 50%
    19:00 +15°C° 0 mm 2 mps 729 mmHg 55%
    20:00 +15°C° 0.1 mm 2 mps 730 mmHg 52%
    21:00 +13°C° 0.1 mm 3 mps 730 mmHg 50%
    22:00 +12°C° 0.1 mm 4 mps 730 mmHg 47%
    23:00 +12°C° 0.1 mm 4 mps 730 mmHg 47%

    28 April, Sunday

    Time Temperature Precipitation Wind Pressure Humidity
    00:00 +11°C° 0.1 mm 4 mps 730 mmHg 48%
    01:00 +11°C° 0.1 mm 3 mps 730 mmHg 48%
    02:00 +11°C° 0 mm 3 mps 730 mmHg 49%
    03:00 +10°C° 0 mm 3 mps 730 mmHg 51%
    04:00 +10°C° 0 mm 3 mps 730 mmHg 52%
    05:00 +10°C° 0 mm 3 mps 730 mmHg 52%
    06:00 +11°C° 0 mm 3 mps 731 mmHg 53%
    07:00 +11°C° 0 mm 3 mps 731 mmHg 53%
    08:00 +14°C° 0 mm 2 mps 731 mmHg 48%
    09:00 +16°C° 0 mm 2 mps 731 mmHg 44%
    10:00 +17°C° 0 mm 2 mps 731 mmHg 39%
    11:00 +18°C° 0 mm 2 mps 731 mmHg 39%
    12:00 +19°C° 0 mm 2 mps 730 mmHg 38%
    13:00 +20°C° 0 mm 2 mps 730 mmHg 37%
    14:00 +19°C° 0 mm 2 mps 730 mmHg 40%
    15:00 +19°C° 0 mm 1 mps 730 mmHg 42%
    16:00 +19°C° 0 mm 1 mps 730 mmHg 45%
    17:00 +18°C° 0 mm 1 mps 730 mmHg 49%
    18:00 +16°C° 0 mm 1 mps 730 mmHg 52%
    19:00 +15°C° 0 mm 1 mps 730 mmHg 56%
    20:00 +13°C° 0 mm 1 mps 731 mmHg 59%
    21:00 +12°C° 0 mm 2 mps 731 mmHg 62%
    22:00 +9°C° 0 mm 2 mps 732 mmHg 66%
    23:00 +9°C° 0 mm 2 mps 732 mmHg 63%

    29 April, Monday

    Time Temperature Precipitation Wind Pressure Humidity
    00:00 +9°C° 0 mm 2 mps 732 mmHg 60%
    01:00 +8°C° 0 mm 2 mps 732 mmHg 58%
    02:00 +8°C° 0 mm 2 mps 732 mmHg 56%
    03:00 +8°C° 0 mm 2 mps 731 mmHg 54%
    04:00 +7°C° 0 mm 2 mps 731 mmHg 52%
    05:00 +8°C° 0 mm 2 mps 731 mmHg 52%
    06:00 +10°C° 0 mm 1 mps 731 mmHg 51%
    07:00 +11°C° 0 mm 1 mps 731 mmHg 50%
    08:00 +13°C° 0 mm 1 mps 730 mmHg 47%
    09:00 +15°C° 0 mm 1 mps 730 mmHg 45%
    10:00 +18°C° 0 mm 1 mps 730 mmHg 42%
    11:00 +19°C° 0 mm 1 mps 729 mmHg 40%
    12:00 +20°C° 0 mm 1 mps 729 mmHg 39%
    13:00 +21°C° 0 mm 1 mps 729 mmHg 37%
    14:00 +21°C° 0 mm 1 mps 728 mmHg 38%
    15:00 +21°C° 0 mm 1 mps 728 mmHg 39%
    16:00 +21°C° 0 mm 1 mps 728 mmHg 39%
    17:00 +20°C° 0 mm 1 mps 728 mmHg 45%
    18:00 +18°C° 0 mm 1 mps 728 mmHg 50%
    19:00 +16°C° 0 mm 1 mps 728 mmHg 55%
    20:00 +15°C° 0 mm 1 mps 728 mmHg 57%
    21:00 +14°C° 0 mm 1 mps 729 mmHg 60%
    22:00 +13°C° 0 mm 1 mps 729 mmHg 62%
    23:00 +13°C° 0 mm 1 mps 729 mmHg 61%
    Show more